Volver al catálogo

STARLINK-34673

ActivoComunicacionesVLEO
NORAD 65090·PAYLOAD·🇺🇸 United States

Lanzado Aug 4, 2025 desde Cape Canaveral Space Force Station

Loading…

Próximos Pases (próximas 24 horas)

TLE

ActualizadoSource: CelesTrak SupGP

Época: Sep 14, 2026, 23:07 UTC

1 65090C 25167N   26257.96368056  .00008732  00000+0  28072-3 0  2574
2 65090  53.1581 227.4909 0001384  97.9785  82.4600 15.31705883    11

Sigue STARLINK-34673 en tiempo real con AllMySat

Download on the App Store